Theta_e
327 327 325 319 303 302 297 300 305 304 306 315 319 316 314 316 314 310 331 336 335 340 342 343 346 348 348 347 346 345 344 341 340 336 335 335 335 334 334 334 334 334 334 334 334 334 334 333 332
323 325 322 314 299 294 295 303 302 306 309 315 314 313 314 313 324 327 328 336 335 340 341 341 344 347 347 347 346 344 343 341 338 336 335 335 334 334 334 334 334 334 334 334 334 334 334 334 333
323 325 313 307 301 294 295 301 302 306 310 313 311 316 315 319 325 329 335 336 334 340 340 340 343 347 347 346 345 343 343 342 340 337 335 335 334 334 334 334 336 334 333 334 334 334 335 335 334
321 318 314 301 299 303 302 303 305 305 307 314 314 311 320 328 329 333 336 335 332 339 340 339 344 347 346 344 343 342 342 341 340 339 337 335 336 334 336 333 333 333 333 332 333 334 336 335 336
321 313 303 301 302 305 308 309 306 304 304 306 309 306 311 329 333 334 335 335 332 334 338 338 342 345 344 344 343 342 341 340 339 336 335 336 334 333 333 332 333 332 334 337 336 335 337 335 337
310 311 299 297 301 306 309 311 307 306 306 306 305 304 309 330 330 333 335 333 334 334 338 339 337 340 341 341 341 341 340 339 338 336 335 333 332 336 333 333 334 338 337 338 337 336 337 337 335
306 303 299 300 300 303 306 311 307 306 308 308 309 305 308 325 332 333 332 335 335 337 337 337 339 338 335 337 337 338 339 338 337 334 335 335 331 335 334 334 336 339 339 339 338 338 337 336 334
305 302 297 298 297 299 307 308 310 309 308 314 313 304 303 324 331 331 330 332 332 334 334 335 335 339 337 336 332 333 335 335 334 330 330 331 331 331 332 333 335 338 340 339 339 338 337 334 332
311 296 293 295 297 300 306 305 310 312 309 310 313 311 316 329 331 328 326 328 330 332 332 331 332 337 336 336 332 330 331 331 330 328 327 326 328 329 330 330 333 337 338 338 338 337 333 330 328
300 294 294 298 300 301 305 304 305 306 306 306 308 312 316 326 327 325 324 324 327 328 331 333 331 336 336 336 333 332 332 330 328 328 327 328 326 328 331 326 329 333 332 336 336 333 328 324 321
300 294 298 299 303 301 299 300 302 299 298 303 304 305 307 310 323 324 324 325 326 329 329 333 334 334 334 333 332 331 330 328 327 327 327 326 326 327 326 326 326 330 326 331 330 328 325 323 319
292 296 295 299 298 296 294 295 292 293 295 300 300 300 300 302 310 316 321 323 326 329 331 331 334 335 334 333 332 330 328 328 327 327 327 325 324 325 326 327 327 328 331 329 326 325 325 323 321
292 293 296 297 295 294 295 292 292 292 296 298 299 300 298 298 301 304 307 309 322 326 329 330 332 333 333 330 329 329 326 326 326 326 326 325 325 326 326 326 327 325 329 328 327 323 322 320 319
294 293 293 294 294 294 292 290 291 292 295 298 300 299 299 300 300 302 304 306 310 322 329 330 331 333 332 329 328 327 325 325 325 324 325 325 325 326 327 324 325 324 324 327 324 322 319 317 316
295 290 292 293 294 290 291 286 287 293 296 294 294 294 294 295 296 296 298 301 306 311 326 329 329 332 332 330 328 326 325 325 324 323 325 325 327 326 326 324 325 323 320 323 322 319 317 314 313
289 289 283 291 290 290 288 280 290 293 292 291 293 293 294 295 296 296 297 298 303 305 313 325 330 330 331 330 329 326 325 324 324 323 325 325 326 326 325 323 316 315 319 318 317 315 312 309 306
287 279 281 284 290 289 288 283 289 293 292 291 292 293 294 294 295 296 297 297 298 302 304 315 326 329 329 330 329 326 324 323 323 323 324 325 326 326 325 316 307 310 317 315 314 312 310 306 302
278 278 281 281 287 289 286 285 289 291 292 291 292 293 293 294 294 296 297 298 298 297 299 304 318 326 329 329 328 326 323 323 323 322 323 324 325 323 317 311 304 309 313 312 311 309 308 304 299
284 283 281 285 289 286 284 285 287 290 291 290 291 290 291 292 295 296 297 299 298 298 298 299 303 320 326 327 325 323 321 321 321 322 323 323 325 319 311 306 303 308 311 310 309 307 303 298 294
284 281 280 286 289 286 284 284 288 290 290 290 290 290 291 293 295 297 297 298 299 299 299 301 301 305 320 326 325 324 322 320 320 322 323 324 321 316 310 304 302 306 309 307 306 304 299 295 295
283 281 281 280 285 286 284 280 283 288 290 291 292 293 293 292 295 297 300 299 300 300 300 301 302 302 306 321 325 323 322 320 319 319 321 320 317 310 307 302 301 304 308 306 304 301 298 293 295
279 285 284 282 279 269 283 272 279 285 286 289 291 289 290 293 296 299 300 299 299 300 302 303 304 302 304 316 320 321 318 315 317 319 319 314 310 306 303 300 300 303 305 303 301 300 297 295 293
282 286 284 283 279 275 275 271 279 285 284 286 289 290 290 293 296 297 298 299 299 299 300 303 304 305 304 304 316 318 318 317 318 317 313 306 305 302 300 299 298 300 303 301 301 299 297 297 294
288 284 284 283 278 266 274 273 276 279 283 286 288 290 291 292 294 296 297 298 299 300 300 302 302 304 305 305 309 314 318 315 314 312 305 303 303 299 297 297 297 300 300 300 299 298 297 295 294
285 279 268 266 265 267 278 273 276 284 286 287 287 288 290 292 293 294 294 296 297 298 298 299 300 301 303 305 306 313 314 315 311 305 304 301 298 295 295 295 296 297 297 297 296 295 295 293 292
279 278 268 260 265 270 278 269 277 286 289 288 289 289 291 292 293 294 294 295 295 296 296 297 298 299 302 303 306 312 314 316 311 306 305 301 299 296 294 295 295 294 295 294 293 292 291 290 289
281 276 282 269 271 269 272 278 283 286 286 287 287 289 290 292 292 292 293 294 294 294 294 295 295 297 299 301 303 309 314 314 309 307 304 303 298 294 293 292 292 292 291 291 290 289 288 288 287
281 284 272 271 261 260 269 273 274 281 283 285 286 288 289 290 289 290 293 292 293 293 294 295 296 296 297 299 301 306 313 311 308 307 302 297 293 292 290 289 290 289 289 289 289 287 287 286 287
278 277 278 278 273 267 266 271 281 278 283 283 286 288 289 288 288 290 291 292 292 293 293 294 295 296 297 299 301 308 312 308 306 301 296 293 292 291 289 289 288 287 287 287 286 286 286 286 287
281 278 279 268 268 273 273 272 284 284 285 286 286 288 287 288 288 290 290 290 290 290 291 293 297 303 298 299 302 310 305 302 299 296 294 292 290 290 288 288 287 286 286 286 286 286 286 286 286
Wind_Speed
17 14 6 3 3 4 7 9 10 4 3 7 6 6 10 7 5 2 2 7 11 18 18 16 18 18 19 18 17 14 15 16 15 14 14 13 12 12 12 12 11 11 11 11 11 11 11 11 11
10 14 5 3 3 6 7 12 9 5 2 8 4 3 6 5 9 8 5 5 13 17 16 15 17 19 19 17 18 17 14 16 16 14 14 14 13 12 12 12 11 11 12 11 11 11 11 11 10
13 12 3 4 5 9 8 11 7 8 9 7 4 3 3 4 9 5 6 5 10 16 15 14 15 19 20 18 17 18 15 15 15 16 16 15 14 13 13 11 11 11 11 11 12 12 11 10 10
5 3 4 5 12 12 7 7 7 7 8 7 4 7 5 6 4 6 7 6 9 14 13 16 14 17 19 19 18 17 17 16 15 15 16 15 14 13 11 12 12 11 11 11 12 12 11 11 10
4 4 6 8 12 14 12 11 2 3 5 8 3 3 5 6 8 8 6 5 7 11 13 17 16 16 18 18 19 18 17 17 15 15 14 14 14 14 13 13 12 12 11 12 12 12 12 12 14
4 3 7 11 13 14 14 10 3 4 8 9 9 6 1 8 6 7 6 6 6 7 14 14 14 14 17 16 17 17 17 16 15 16 15 15 14 11 14 13 12 12 13 13 14 12 13 13 14
7 6 11 14 14 14 15 12 3 3 8 10 4 7 3 9 8 5 4 7 7 8 14 13 12 13 13 13 15 14 15 14 15 16 15 12 13 10 11 11 11 12 12 14 15 12 14 13 13
4 6 12 13 13 15 12 11 8 7 8 5 6 2 4 6 8 5 2 4 4 4 11 12 12 10 11 10 12 12 11 12 12 17 13 12 11 8 8 7 9 8 12 14 14 14 14 15 13
1 4 7 13 13 14 8 14 13 5 6 5 7 5 7 12 8 7 3 3 3 2 5 11 14 13 12 11 10 11 13 10 9 11 10 10 5 6 6 6 7 8 12 16 17 16 16 13 11
5 5 7 9 8 12 13 13 14 13 14 13 11 11 8 9 10 7 6 6 7 7 5 7 11 15 14 11 11 9 8 7 7 6 6 5 5 6 7 5 6 7 9 16 17 17 15 8 4
3 6 12 12 9 10 11 14 13 14 13 13 15 14 19 17 5 8 9 8 10 8 5 7 10 11 13 12 10 7 6 6 6 9 8 6 7 7 4 4 3 3 7 6 8 8 4 7 4
4 7 9 7 8 9 11 13 13 16 17 15 18 17 17 20 16 8 8 8 11 14 14 10 10 11 14 9 9 10 9 8 7 9 10 8 4 4 5 4 5 4 5 8 6 4 4 6 5
8 7 9 9 9 10 11 11 14 16 14 12 11 11 13 16 18 17 14 15 10 11 15 17 13 12 11 12 10 10 10 10 10 10 11 10 6 7 5 5 4 5 5 7 6 4 5 5 6
6 9 12 8 10 8 10 11 10 12 14 10 7 9 9 11 12 11 12 15 16 13 16 16 17 13 13 13 12 10 10 11 10 10 11 13 6 7 7 5 5 5 5 6 7 6 6 5 5
6 7 10 5 2 5 7 9 9 3 5 8 11 11 14 15 15 15 11 16 16 13 7 19 18 18 12 15 14 11 11 11 11 10 13 14 10 9 9 8 6 5 5 8 7 7 7 6 7
4 3 6 4 5 1 4 6 9 16 13 15 17 18 15 13 14 13 14 15 17 14 9 6 13 19 21 13 13 11 11 10 11 10 9 13 11 11 10 7 5 5 6 7 7 8 8 7 7
4 4 9 9 2 8 7 17 8 17 18 17 16 17 17 16 13 11 11 11 11 13 11 8 10 18 19 18 13 13 13 12 11 10 9 14 13 11 9 8 6 5 7 7 8 7 9 9 7
6 6 7 10 10 15 15 22 16 15 19 20 19 18 18 15 12 9 9 9 9 9 10 9 7 14 18 15 12 11 11 11 11 12 10 16 13 9 11 9 9 7 7 7 8 10 8 9 9
7 9 11 13 14 15 12 24 22 16 21 22 19 12 10 9 9 8 7 7 8 9 9 9 9 8 13 12 13 12 12 11 12 12 15 15 14 13 12 9 11 9 10 12 12 10 13 8 11
9 10 10 10 6 14 15 26 25 19 16 11 17 13 11 10 7 7 6 7 8 8 8 9 9 10 10 13 13 11 12 11 12 12 14 16 13 14 14 14 12 12 9 11 12 13 9 6 8
9 8 7 10 12 11 11 14 3 12 15 12 14 17 10 2 5 6 6 6 7 8 8 8 9 12 11 16 12 13 13 12 12 12 10 10 15 14 13 13 12 12 11 11 12 13 12 8 6
7 6 10 14 10 2 8 13 4 11 9 12 16 7 7 4 4 6 7 8 7 7 8 8 8 9 12 12 16 16 13 14 10 11 11 9 13 14 14 13 13 13 9 12 11 10 9 9 10
8 10 15 16 12 6 6 4 9 20 14 10 13 9 9 7 7 7 8 8 9 7 8 8 9 9 10 15 16 15 21 13 13 11 14 12 8 12 13 13 13 12 9 10 12 10 9 7 6
10 10 19 14 2 1 9 6 15 13 10 13 9 12 7 8 8 10 12 17 16 15 11 8 8 12 16 16 17 22 23 21 16 15 13 11 10 9 11 13 12 12 11 12 10 8 10 7 7
1 7 6 7 3 8 9 10 12 15 15 21 15 8 11 10 12 18 20 16 16 17 15 15 20 23 20 20 20 22 21 23 26 21 16 17 12 9 13 15 14 11 13 13 12 10 10 8 8
3 1 3 5 4 16 14 8 8 11 16 7 9 13 13 15 14 15 20 24 25 26 24 22 20 23 20 21 21 19 20 15 16 22 18 15 15 14 14 14 14 14 15 14 14 10 8 9 8
3 3 1 3 8 6 7 10 16 15 6 8 13 12 17 16 15 25 24 23 24 25 27 27 27 27 22 22 19 18 18 19 17 23 20 16 15 13 18 15 17 15 15 16 16 10 13 11 10
5 4 4 1 5 7 8 17 14 8 7 15 11 21 20 12 21 26 25 26 24 24 21 22 24 26 25 24 21 20 18 15 15 17 20 20 18 20 20 16 17 16 16 17 16 13 13 14 8
3 3 4 5 3 5 7 17 4 5 16 9 21 20 21 14 26 25 25 24 22 22 20 21 23 26 24 23 21 22 18 18 17 16 17 19 21 22 21 20 19 18 16 16 17 15 14 14 11
3 4 4 4 8 6 6 24 16 18 7 23 18 23 14 18 24 25 26 23 19 20 20 22 20 20 22 20 20 17 17 17 17 12 19 18 21 20 21 19 19 19 17 16 17 16 14 14 11
Wind_Direction
312 310 306 281 259 216 259 259 251 287 30 55 62 359 343 341 343 74 270 114 140 135 150 158 162 161 158 152 148 147 143 144 141 150 145 141 136 133 131 129 120 114 118 112 110 107 99 96 95
307 301 283 266 245 267 258 239 246 155 49 56 3 308 274 281 74 107 145 161 138 139 147 161 165 163 159 156 150 146 150 150 153 155 150 147 148 141 136 130 134 135 118 118 118 114 105 100 97
277 266 283 229 213 250 273 294 26 10 50 33 324 160 295 30 48 101 67 160 139 142 153 159 166 160 159 157 152 148 158 159 157 157 159 155 149 152 144 144 145 129 134 122 119 119 111 104 102
301 244 248 247 262 270 277 306 32 352 328 125 305 319 84 64 77 56 120 195 153 142 160 147 166 165 161 158 156 156 163 160 169 165 161 165 162 157 143 147 142 141 135 136 123 126 121 113 104
234 264 256 259 253 260 270 293 81 267 302 300 109 278 345 84 100 113 137 185 171 151 159 156 161 169 165 163 158 163 169 167 164 166 172 166 164 160 160 154 152 148 145 133 134 139 136 116 98
259 215 250 252 258 258 253 246 254 272 281 293 306 267 304 125 131 108 133 184 189 160 132 153 158 165 167 170 162 170 172 166 166 174 171 175 172 168 166 162 161 159 162 151 141 145 124 107 91
250 278 250 260 268 280 292 310 241 232 258 291 338 339 333 94 81 77 143 165 191 165 141 150 164 169 164 168 168 174 174 172 170 174 173 171 178 174 166 178 192 173 170 147 141 133 115 107 102
269 258 259 266 277 278 291 288 302 314 277 281 304 275 255 93 89 80 80 96 302 91 134 154 165 172 171 171 168 167 169 173 179 179 173 163 161 180 186 183 204 192 148 133 140 129 125 116 110
19 253 253 262 271 279 342 357 339 296 257 267 285 267 266 121 126 118 128 162 236 246 164 159 170 171 179 177 172 165 166 167 171 172 159 154 163 173 172 211 201 174 151 146 142 129 120 118 120
210 225 252 263 7 359 350 343 332 334 323 314 314 318 283 150 151 165 184 205 207 218 201 173 181 177 176 179 170 176 173 169 167 157 157 164 183 170 184 161 159 158 149 145 132 131 130 121 126
290 248 286 308 13 359 329 312 321 311 290 288 295 326 324 317 235 190 200 200 207 209 209 181 191 191 188 184 166 177 177 177 177 169 162 186 207 184 159 137 148 159 121 116 118 136 145 132 143
316 276 289 338 340 331 307 300 287 280 281 294 299 303 300 298 297 278 223 217 206 193 190 208 195 197 196 187 170 177 176 181 181 183 173 183 195 180 162 151 163 155 143 141 141 147 169 136 167
250 297 339 325 310 296 293 298 282 281 279 275 281 301 294 287 290 298 296 288 243 199 189 192 203 201 198 196 172 179 180 182 183 181 179 185 193 166 160 161 154 145 146 150 148 139 112 105 91
3 308 295 289 278 299 291 307 312 277 289 298 298 277 287 293 296 302 303 299 295 243 185 195 194 207 209 190 194 180 186 181 184 184 183 188 174 167 164 164 161 159 165 139 134 130 114 106 100
276 285 267 231 203 270 6 271 224 224 357 306 292 300 293 287 289 281 277 279 280 290 241 187 192 194 203 207 195 190 192 180 188 186 180 182 169 172 174 170 174 157 139 125 131 120 115 109 97
261 271 352 159 25 286 21 271 292 331 315 298 283 278 274 269 265 264 270 262 270 275 276 244 199 196 195 205 206 199 192 190 184 182 179 172 172 180 171 160 125 127 123 124 134 134 121 110 105
236 329 328 325 216 352 350 295 281 304 289 292 287 283 280 278 267 264 259 265 270 266 264 244 228 205 202 192 203 207 204 195 185 182 170 179 184 184 168 140 129 131 133 138 139 130 132 131 116
312 315 314 302 323 321 304 280 292 296 293 283 287 287 280 274 270 259 256 255 266 282 292 276 232 211 205 199 186 213 206 200 187 186 178 179 186 164 135 134 139 142 140 145 142 138 133 130 127
305 288 287 288 297 298 285 291 290 290 285 282 277 281 291 286 281 279 258 259 267 263 274 271 281 234 204 225 191 199 203 196 196 187 187 177 178 151 137 138 144 158 161 159 151 140 133 122 122
275 276 275 271 295 315 295 292 284 275 269 283 287 278 264 256 274 271 269 254 244 254 260 268 267 285 238 214 210 193 196 192 198 191 185 178 159 152 149 150 156 164 155 149 147 145 135 121 158
281 274 296 290 318 276 341 285 276 321 285 272 285 279 274 281 291 311 312 315 313 304 271 256 255 258 276 218 234 188 188 191 193 188 183 170 156 148 147 149 156 157 160 157 156 152 151 149 181
292 357 322 305 328 273 62 291 263 258 272 288 297 340 329 303 288 273 269 271 266 265 277 293 283 260 256 248 218 224 192 180 193 181 170 158 152 146 147 151 156 157 152 151 155 152 149 144 162
250 342 300 283 277 306 255 248 270 302 301 306 326 313 306 300 260 260 261 262 259 256 251 243 254 276 268 249 230 226 190 192 172 171 163 146 147 139 143 153 151 149 147 144 149 143 137 148 142
287 293 286 276 182 279 239 165 294 303 307 309 303 309 328 330 329 322 316 305 289 281 274 250 245 254 264 256 244 227 234 174 180 166 154 153 152 145 145 145 141 141 137 139 134 122 126 125 125
142 333 323 349 345 231 325 329 252 282 297 313 300 0 339 326 324 317 306 315 312 303 293 282 273 267 255 252 244 222 218 205 176 161 161 158 151 156 165 146 141 137 132 127 119 118 122 130 132
319 314 179 273 299 297 295 240 257 306 300 314 2 341 332 316 320 329 310 299 294 287 282 274 265 261 254 247 244 234 207 199 185 171 166 165 166 159 158 147 137 136 134 132 127 123 110 109 106
99 201 354 306 248 271 241 266 307 279 296 345 332 329 309 318 322 316 304 291 295 291 286 277 268 260 250 246 245 239 205 184 200 176 166 164 151 149 143 151 137 138 135 133 133 132 124 118 125
223 16 37 302 302 299 285 294 250 302 316 316 315 318 321 315 319 318 305 305 300 291 281 271 263 254 247 242 237 238 193 171 185 167 163 156 146 143 137 141 135 137 140 136 129 131 130 131 142
160 235 199 214 206 248 296 286 206 283 301 306 322 318 319 328 325 308 308 304 300 293 285 272 259 247 230 227 229 221 184 166 155 161 149 153 142 144 142 145 141 141 141 140 132 135 137 135 131
268 231 252 148 265 240 297 269 289 267 282 334 311 313 332 320 316 312 307 307 304 300 295 290 281 254 207 208 222 178 147 139 140 164 145 149 141 141 143 141 141 138 139 139 136 137 134 136 149